| time (UTC) | temp F | wind direction | speed knots | gust knots | rain 1hr in | rain 24hr in | rain mn in | humidity % | barometer mb |
| 20260508131557 | 55 | 0 | 0.0 | 0.9 | 0.00 | 0.00 | 0.00 | 59 | 1017.1 |
| 20260508131045 | 55 | 0 | 0.0 | 0.9 | 0.00 | 0.00 | 0.00 | 62 | 1017.2 |
| 20260508130548 | 54 | 0 | 0.0 | 2.6 | 0.00 | 0.00 | 0.00 | 62 | 1017.1 |
| 20260508130053 | 54 | 0 | 0.0 | 2.6 | 0.00 | 0.00 | 0.00 | 64 | 1017.1 |
| 20260508125545 | 53 | 0 | 0.0 | 5.2 | 0.00 | 0.00 | 0.00 | 64 | 1017.2 |
| 20260508125045 | 52 | 0 | 0.0 | 5.2 | 0.00 | 0.00 | 0.00 | 66 | 1017.3 |
| 20260508124557 | 52 | 0 | 0.0 | 0.0 | 0.00 | 0.00 | 0.00 | 69 | 1017.3 |
| 20260508124041 | 51 | 0 | 0.0 | 0.0 | 0.00 | 0.00 | 0.00 | 72 | 1017.2 |
| 20260508123545 | 50 | 0 | 0.0 | 0.9 | 0.00 | 0.00 | 0.00 | 76 | 1017.2 |
| 20260508123106 | 49 | 0 | 0.0 | 0.9 | 0.00 | 0.00 | 0.00 | 77 | 1017.2 |
| 20260508122544 | 48 | 0 | 0.0 | 0.9 | 0.00 | 0.00 | 0.00 | 85 | 1017.2 |
| 20260508122044 | 47 | 0 | 0.0 | 0.9 | 0.00 | 0.00 | 0.00 | 86 | 1017.2 |
| 20260508121558 | 46 | 0 | 0.0 | 0.9 | 0.00 | 0.00 | 0.00 | 86 | 1017.2 |
| 20260508121046 | 46 | 0 | 0.0 | 0.0 | 0.00 | 0.00 | 0.00 | 87 | 1017.1 |
| 20260508120545 | 45 | 0 | 0.0 | 0.0 | 0.00 | 0.00 | 0.00 | 88 | 1017.1 |
| 20260508120055 | 44 | 0 | 0.0 | 0.0 | 0.00 | 0.00 | 0.00 | 89 | 1017.1 |
| 20260508115546 | 43 | 0 | 0.0 | 0.0 | 0.00 | 0.00 | 0.00 | 91 | 1016.9 |
| 20260508115044 | 43 | 0 | 0.0 | 0.0 | 0.00 | 0.00 | 0.00 | 92 | 1017.0 |
| 20260508114553 | 42 | 0 | 0.0 | 0.0 | 0.00 | 0.00 | 0.00 | 93 | 1017.0 |
| 20260508114049 | 41 | 0 | 0.0 | 0.0 | 0.00 | 0.00 | 0.00 | 94 | 1017.0 |
| 20260508113545 | 41 | 0 | 0.0 | 0.0 | 0.00 | 0.00 | 0.00 | 94 | 1017.0 |
| 20260508113106 | 40 | 0 | 0.0 | 0.0 | 0.00 | 0.00 | 0.00 | 94 | 1016.9 |
| 20260508112542 | 40 | 0 | 0.0 | 0.0 | 0.00 | 0.00 | 0.00 | 94 | 1017.0 |
| 20260508112047 | 39 | 0 | 0.0 | 0.0 | 0.00 | 0.00 | 0.00 | 94 | 1017.0 |
| 20260508111557 | 39 | 0 | 0.0 | 0.0 | 0.00 | 0.00 | 0.00 | 94 | 1016.8 |
| 20260508111046 | 38 | 0 | 0.0 | 0.0 | 0.00 | 0.00 | 0.00 | 94 | 1016.8 |
| 20260508110545 | 37 | 0 | 0.0 | 0.0 | 0.00 | 0.00 | 0.00 | 94 | 1016.6 |
| 20260508110057 | 37 | 0 | 0.0 | 0.0 | 0.00 | 0.00 | 0.00 | 93 | 1016.6 |
| 20260508105543 | 37 | 0 | 0.0 | 0.0 | 0.00 | 0.00 | 0.00 | 93 | 1016.6 |
| 20260508105045 | 36 | 0 | 0.0 | 0.0 | 0.00 | 0.00 | 0.00 | 92 | 1016.6 |
| 20260508104555 | 36 | 0 | 0.0 | 0.0 | 0.00 | 0.00 | 0.00 | 92 | 1016.6 |
| 20260508104045 | 36 | 0 | 0.0 | 0.0 | 0.00 | 0.00 | 0.00 | 92 | 1016.6 |
| 20260508103543 | 36 | 0 | 0.0 | 0.0 | 0.00 | 0.00 | 0.00 | 92 | 1016.6 |
| 20260508103059 | 36 | 0 | 0.0 | 0.0 | 0.00 | 0.00 | 0.00 | 92 | 1016.6 |
| 20260508102542 | 36 | 0 | 0.0 | 0.0 | 0.00 | 0.00 | 0.00 | 92 | 1016.6 |
| 20260508102043 | 36 | 0 | 0.0 | 0.0 | 0.00 | 0.00 | 0.00 | 92 | 1016.5 |
| 20260508101559 | 37 | 0 | 0.0 | 0.0 | 0.00 | 0.00 | 0.00 | 92 | 1016.5 |
| 20260508101044 | 37 | 0 | 0.0 | 0.0 | 0.00 | 0.00 | 0.00 | 92 | 1016.4 |
| 20260508100547 | 37 | 0 | 0.0 | 0.0 | 0.00 | 0.00 | 0.00 | 92 | 1016.3 |
| 20260508100055 | 37 | 0 | 0.0 | 0.0 | 0.00 | 0.00 | 0.00 | 92 | 1016.3 |
| 20260508095545 | 37 | 0 | 0.0 | 0.0 | 0.00 | 0.00 | 0.00 | 91 | 1016.3 |
| 20260508095042 | 37 | 0 | 0.0 | 0.0 | 0.00 | 0.00 | 0.00 | 92 | 1016.3 |
| 20260508094610 | 37 | 0 | 0.0 | 0.0 | 0.00 | 0.00 | 0.00 | 92 | 1016.2 |
| 20260508094046 | 37 | 0 | 0.0 | 0.0 | 0.00 | 0.00 | 0.00 | 92 | 1016.2 |
| 20260508093543 | 37 | 0 | 0.0 | 0.0 | 0.00 | 0.00 | 0.00 | 92 | 1016.1 |
| 20260508093053 | 37 | 0 | 0.0 | 0.0 | 0.00 | 0.00 | 0.00 | 91 | 1016.1 |
| 20260508092543 | 37 | 0 | 0.0 | 0.0 | 0.00 | 0.00 | 0.00 | 91 | 1016.1 |
| 20260508092043 | 37 | 0 | 0.0 | 0.0 | 0.00 | 0.00 | 0.00 | 91 | 1016.2 |
| 20260508091553 | 37 | 0 | 0.0 | 0.0 | 0.00 | 0.00 | 0.00 | 91 | 1016.2 |
| 20260508091043 | 37 | 0 | 0.0 | 0.0 | 0.00 | 0.00 | 0.00 | 91 | 1016.1 |
| 20260508090543 | 37 | 0 | 0.0 | 0.0 | 0.00 | 0.00 | 0.00 | 91 | 1016.0 |
| 20260508090054 | 37 | 0 | 0.0 | 0.0 | 0.00 | 0.00 | 0.00 | 91 | 1016.1 |
| 20260508085542 | 38 | 0 | 0.0 | 0.0 | 0.00 | 0.00 | 0.00 | 91 | 1016.0 |
| 20260508085044 | 38 | 0 | 0.0 | 0.0 | 0.00 | 0.00 | 0.00 | 91 | 1016.0 |
| 20260508084555 | 38 | 0 | 0.0 | 0.0 | 0.00 | 0.00 | 0.00 | 91 | 1015.9 |
| 20260508084045 | 38 | 0 | 0.0 | 0.0 | 0.00 | 0.00 | 0.00 | 91 | 1015.9 |
| 20260508083547 | 38 | 0 | 0.0 | 0.0 | 0.00 | 0.00 | 0.00 | 90 | 1015.9 |
| 20260508083056 | 38 | 0 | 0.0 | 0.0 | 0.00 | 0.00 | 0.00 | 90 | 1015.9 |
| 20260508082545 | 38 | 0 | 0.0 | 0.0 | 0.00 | 0.00 | 0.00 | 90 | 1016.0 |
| 20260508082045 | 38 | 0 | 0.0 | 0.0 | 0.00 | 0.00 | 0.00 | 90 | 1016.0 |
| 20260508081616 | 38 | 0 | 0.0 | 0.0 | 0.00 | 0.00 | 0.00 | 90 | 1016.0 |
| 20260508081046 | 38 | 0 | 0.0 | 0.0 | 0.00 | 0.00 | 0.00 | 89 | 1016.0 |
| 20260508080545 | 38 | 0 | 0.0 | 0.0 | 0.00 | 0.00 | 0.00 | 89 | 1015.9 |
| 20260508080101 | 38 | 0 | 0.0 | 0.0 | 0.00 | 0.00 | 0.00 | 89 | 1015.9 |
| 20260508075547 | 38 | 0 | 0.0 | 0.0 | 0.00 | 0.00 | 0.00 | 89 | 1016.0 |
| 20260508075046 | 38 | 0 | 0.0 | 0.0 | 0.00 | 0.00 | 0.00 | 89 | 1016.0 |
| 20260508074552 | 38 | 0 | 0.0 | 0.0 | 0.00 | 0.00 | 0.00 | 89 | 1016.0 |
| 20260508074046 | 38 | 0 | 0.0 | 0.0 | 0.00 | 0.00 | 0.00 | 89 | 1015.9 |
| 20260508073546 | 39 | 0 | 0.0 | 0.0 | 0.00 | 0.00 | 0.00 | 89 | 1015.9 |
| 20260508073052 | 39 | 0 | 0.0 | 0.0 | 0.00 | 0.00 | 0.00 | 89 | 1015.8 |
| 20260508072544 | 39 | 0 | 0.0 | 0.0 | 0.00 | 0.00 | 0.00 | 89 | 1015.8 |
| 20260508072047 | 39 | 0 | 0.0 | 0.0 | 0.00 | 0.00 | 0.00 | 89 | 1016.0 |
| 20260508071556 | 39 | 0 | 0.0 | 0.0 | 0.00 | 0.00 | 0.00 | 89 | 1016.0 |
| 20260508071042 | 39 | 0 | 0.0 | 0.0 | 0.00 | 0.00 | 0.00 | 88 | 1015.9 |
| 20260508070547 | 39 | 0 | 0.0 | 0.0 | 0.00 | 0.00 | 0.00 | 88 | 1015.9 |
| 20260508070051 | 39 | 0 | 0.0 | 0.0 | 0.00 | 0.00 | 0.00 | 88 | 1016.0 |
| 20260508065542 | 39 | 0 | 0.0 | 0.0 | 0.00 | 0.00 | 0.00 | 88 | 1016.0 |
| 20260508065044 | 39 | 0 | 0.0 | 0.0 | 0.00 | 0.00 | 0.00 | 87 | 1016.0 |
| 20260508064554 | 40 | 0 | 0.0 | 0.0 | 0.00 | 0.00 | 0.00 | 87 | 1016.0 |
| 20260508064048 | 40 | 0 | 0.0 | 0.0 | 0.00 | 0.00 | 0.00 | 87 | 1016.1 |
| 20260508063544 | 40 | 0 | 0.0 | 0.0 | 0.00 | 0.00 | 0.00 | 86 | 1016.1 |
| 20260508063103 | 40 | 0 | 0.0 | 0.0 | 0.00 | 0.00 | 0.00 | 86 | 1016.2 |
| 20260508062544 | 40 | 0 | 0.0 | 0.0 | 0.00 | 0.00 | 0.00 | 86 | 1016.1 |
| 20260508062045 | 40 | 0 | 0.0 | 0.0 | 0.00 | 0.00 | 0.00 | 86 | 1016.1 |
| 20260508061554 | 40 | 0 | 0.0 | 0.0 | 0.00 | 0.00 | 0.00 | 86 | 1016.1 |
| 20260508061045 | 41 | 0 | 0.0 | 0.0 | 0.00 | 0.00 | 0.00 | 86 | 1016.1 |
| 20260508060545 | 41 | 0 | 0.0 | 0.0 | 0.00 | 0.00 | 0.00 | 86 | 1016.2 |
| 20260508060055 | 41 | 0 | 0.0 | 0.0 | 0.00 | 0.00 | 0.00 | 85 | 1016.2 |
| 20260508055545 | 41 | 0 | 0.0 | 0.0 | 0.00 | 0.00 | 0.00 | 85 | 1016.3 |
| 20260508055049 | 41 | 0 | 0.0 | 0.0 | 0.00 | 0.00 | 0.00 | 85 | 1016.2 |
| 20260508054551 | 41 | 0 | 0.0 | 0.0 | 0.00 | 0.00 | 0.00 | 84 | 1016.1 |
| 20260508054040 | 41 | 0 | 0.0 | 0.0 | 0.00 | 0.00 | 0.00 | 84 | 1016.0 |
| 20260508053541 | 41 | 0 | 0.0 | 0.0 | 0.00 | 0.00 | 0.00 | 84 | 1016.1 |
| 20260508053056 | 42 | 0 | 0.0 | 0.0 | 0.00 | 0.00 | 0.00 | 83 | 1016.1 |
| 20260508052541 | 42 | 0 | 0.0 | 0.0 | 0.00 | 0.00 | 0.00 | 83 | 1016.0 |
| 20260508052041 | 42 | 0 | 0.0 | 0.0 | 0.00 | 0.00 | 0.00 | 83 | 1016.1 |
| 20260508051556 | 42 | 0 | 0.0 | 0.0 | 0.00 | 0.00 | 0.00 | 82 | 1016.2 |
| 20260508051043 | 42 | 0 | 0.0 | 0.0 | 0.00 | 0.00 | 0.00 | 81 | 1016.1 |
| 20260508050542 | 43 | 0 | 0.0 | 0.0 | 0.00 | 0.00 | 0.00 | 80 | 1016.1 |
| 20260508050055 | 43 | 0 | 0.0 | 0.0 | 0.00 | 0.00 | 0.00 | 80 | 1016.1 |
| 20260508045543 | 43 | 0 | 0.0 | 0.0 | 0.00 | 0.00 | 0.00 | 79 | 1016.2 |
| 20260508045041 | 43 | 0 | 0.0 | 0.0 | 0.00 | 0.00 | 0.00 | 79 | 1016.2 |
| 20260508044600 | 43 | 0 | 0.0 | 0.0 | 0.00 | 0.00 | 0.00 | 78 | 1016.2 |
| 20260508044041 | 44 | 0 | 0.0 | 0.0 | 0.00 | 0.00 | 0.00 | 77 | 1016.2 |
| 20260508043541 | 44 | 0 | 0.0 | 0.0 | 0.00 | 0.00 | 0.00 | 77 | 1016.2 |
| 20260508043053 | 44 | 0 | 0.0 | 0.0 | 0.00 | 0.00 | 0.00 | 76 | 1016.2 |
| 20260508042541 | 44 | 0 | 0.0 | 0.0 | 0.00 | 0.00 | 0.00 | 76 | 1016.1 |
| 20260508042042 | 44 | 0 | 0.0 | 0.0 | 0.00 | 0.00 | 0.00 | 76 | 1016.2 |
| 20260508041550 | 44 | 0 | 0.0 | 0.0 | 0.00 | 0.00 | 0.00 | 75 | 1016.2 |
| 20260508041040 | 45 | 0 | 0.0 | 0.0 | 0.00 | 0.00 | 0.00 | 74 | 1016.2 |
| 20260508040543 | 45 | 0 | 0.0 | 0.0 | 0.00 | 0.00 | 0.00 | 74 | 1016.2 |
| 20260508040055 | 45 | 0 | 0.0 | 0.0 | 0.00 | 0.00 | 0.00 | 73 | 1016.2 |
| 20260508035543 | 45 | 0 | 0.0 | 0.0 | 0.00 | 0.00 | 0.00 | 72 | 1016.1 |
| 20260508035041 | 46 | 0 | 0.0 | 0.0 | 0.00 | 0.00 | 0.00 | 72 | 1016.1 |
| 20260508034552 | 46 | 0 | 0.0 | 0.0 | 0.00 | 0.00 | 0.00 | 71 | 1016.1 |
| 20260508034042 | 46 | 0 | 0.0 | 0.0 | 0.00 | 0.00 | 0.00 | 69 | 1016.1 |
| 20260508033540 | 46 | 0 | 0.0 | 0.0 | 0.00 | 0.00 | 0.00 | 69 | 1016.1 |
| 20260508033055 | 46 | 0 | 0.0 | 0.0 | 0.00 | 0.00 | 0.00 | 69 | 1016.2 |
| 20260508032544 | 47 | 0 | 0.0 | 0.0 | 0.00 | 0.00 | 0.00 | 69 | 1016.2 |
| 20260508032041 | 47 | 0 | 0.0 | 0.0 | 0.00 | 0.00 | 0.00 | 69 | 1016.2 |
| 20260508031556 | 47 | 0 | 0.0 | 0.0 | 0.00 | 0.00 | 0.00 | 68 | 1016.2 |
| 20260508031040 | 47 | 0 | 0.0 | 0.0 | 0.00 | 0.00 | 0.00 | 68 | 1016.2 |
| 20260508030541 | 48 | 0 | 0.0 | 0.0 | 0.00 | 0.00 | 0.00 | 68 | 1016.1 |
| 20260508030053 | 48 | 0 | 0.0 | 0.0 | 0.00 | 0.00 | 0.00 | 66 | 1016.2 |
| 20260508025541 | 48 | 0 | 0.0 | 0.0 | 0.00 | 0.00 | 0.00 | 65 | 1016.1 |
| 20260508025040 | 48 | 0 | 0.0 | 0.0 | 0.00 | 0.00 | 0.00 | 65 | 1016.1 |
| 20260508024553 | 49 | 0 | 0.0 | 0.0 | 0.00 | 0.00 | 0.00 | 64 | 1016.0 |
| 20260508024040 | 49 | 0 | 0.0 | 0.0 | 0.00 | 0.00 | 0.00 | 63 | 1015.8 |
| 20260508023541 | 49 | 0 | 0.0 | 0.0 | 0.00 | 0.00 | 0.00 | 63 | 1015.8 |
| 20260508023049 | 49 | 0 | 0.0 | 0.0 | 0.00 | 0.00 | 0.00 | 63 | 1015.7 |
| 20260508022542 | 49 | 0 | 0.0 | 0.0 | 0.00 | 0.00 | 0.00 | 62 | 1015.7 |
| 20260508022042 | 49 | 0 | 0.0 | 0.0 | 0.00 | 0.00 | 0.00 | 61 | 1015.6 |
| 20260508021553 | 49 | 0 | 0.0 | 0.0 | 0.00 | 0.00 | 0.00 | 62 | 1015.5 |
| 20260508021040 | 50 | 0 | 0.0 | 0.0 | 0.00 | 0.00 | 0.00 | 61 | 1015.5 |
| 20260508020541 | 50 | 0 | 0.0 | 0.0 | 0.00 | 0.00 | 0.00 | 61 | 1015.5 |
| 20260508020050 | 50 | 0 | 0.0 | 0.0 | 0.00 | 0.00 | 0.00 | 61 | 1015.3 |
| 20260508015541 | 50 | 0 | 0.0 | 0.0 | 0.00 | 0.00 | 0.00 | 61 | 1015.1 |
| 20260508015042 | 51 | 0 | 0.0 | 0.0 | 0.00 | 0.00 | 0.00 | 61 | 1015.0 |
| 20260508014552 | 51 | 0 | 0.0 | 0.0 | 0.00 | 0.00 | 0.00 | 59 | 1014.9 |
| 20260508014041 | 51 | 0 | 0.0 | 0.0 | 0.00 | 0.00 | 0.00 | 58 | 1014.8 |
| 20260508013540 | 51 | 0 | 0.0 | 0.0 | 0.00 | 0.00 | 0.00 | 57 | 1014.8 |
| 20260508013052 | 51 | 0 | 0.0 | 0.0 | 0.00 | 0.00 | 0.00 | 58 | 1014.6 |
| 20260508012542 | 51 | 0 | 0.0 | 0.0 | 0.00 | 0.00 | 0.00 | 56 | 1014.7 |
| 20260508012045 | 52 | 0 | 0.0 | 0.0 | 0.00 | 0.00 | 0.00 | 56 | 1014.6 |
| 20260508011551 | 52 | 0 | 0.0 | 0.0 | 0.00 | 0.00 | 0.00 | 56 | 1014.6 |
| 20260508011044 | 52 | 0 | 0.0 | 0.0 | 0.00 | 0.00 | 0.00 | 55 | 1014.5 |
| 20260508010542 | 52 | 0 | 0.0 | 0.0 | 0.00 | 0.00 | 0.00 | 54 | 1014.5 |
| 20260508010053 | 53 | 0 | 0.0 | 0.0 | 0.00 | 0.00 | 0.00 | 54 | 1014.5 |
| 20260508005541 | 53 | 0 | 0.0 | 0.9 | 0.00 | 0.00 | 0.00 | 53 | 1014.5 |
| 20260508005043 | 53 | 0 | 0.0 | 0.9 | 0.00 | 0.00 | 0.00 | 52 | 1014.5 |
| 20260508004557 | 54 | 0 | 0.0 | 0.0 | 0.00 | 0.00 | 0.00 | 54 | 1014.4 |
| 20260508004043 | 54 | 0 | 0.0 | 0.0 | 0.00 | 0.00 | 0.00 | 52 | 1014.4 |
| 20260508003541 | 55 | 0 | 0.0 | 0.0 | 0.00 | 0.00 | 0.00 | 50 | 1014.4 |
| 20260508003056 | 55 | 0 | 0.0 | 0.0 | 0.00 | 0.00 | 0.00 | 50 | 1014.2 |
| 20260508002542 | 55 | 0 | 0.0 | 0.0 | 0.00 | 0.00 | 0.00 | 50 | 1014.2 |
| 20260508002042 | 56 | 0 | 0.0 | 0.0 | 0.00 | 0.00 | 0.00 | 50 | 1014.2 |
| 20260508001556 | 56 | 0 | 0.0 | 0.0 | 0.00 | 0.00 | 0.00 | 50 | 1014.2 |
| 20260508001043 | 56 | 0 | 0.0 | 0.0 | 0.00 | 0.00 | 0.00 | 52 | 1014.1 |
| 20260508000541 | 57 | 0 | 0.0 | 1.7 | 0.00 | 0.00 | 0.00 | 49 | 1014.0 |
| 20260508000053 | 57 | 0 | 0.0 | 1.7 | 0.00 | 0.00 | 0.00 | 50 | 1013.8 |
| 20260507235543 | 57 | 0 | 0.0 | 1.7 | 0.00 | 0.00 | 0.00 | 49 | 1013.6 |
| 20260507235045 | 57 | 0 | 0.0 | 0.9 | 0.00 | 0.00 | 0.00 | 49 | 1013.5 |
| 20260507234550 | 58 | 0 | 0.0 | 0.0 | 0.00 | 0.00 | 0.00 | 49 | 1013.5 |
| 20260507234041 | 58 | 0 | 0.0 | 0.0 | 0.00 | 0.00 | 0.00 | 51 | 1013.6 |
| 20260507233547 | 58 | 0 | 0.0 | 0.0 | 0.00 | 0.00 | 0.00 | 51 | 1013.6 |
| 20260507233052 | 58 | 0 | 0.0 | 0.0 | 0.00 | 0.00 | 0.00 | 50 | 1013.4 |
| 20260507232542 | 59 | 0 | 0.0 | 0.0 | 0.00 | 0.00 | 0.00 | 49 | 1013.4 |
| 20260507232045 | 59 | 0 | 0.0 | 0.0 | 0.00 | 0.00 | 0.00 | 51 | 1013.4 |
| 20260507231554 | 59 | 0 | 0.0 | 0.0 | 0.00 | 0.00 | 0.00 | 49 | 1013.4 |
| 20260507231042 | 59 | 0 | 0.0 | 0.0 | 0.00 | 0.00 | 0.00 | 47 | 1013.3 |
| 20260507230545 | 59 | 0 | 0.0 | 0.0 | 0.00 | 0.00 | 0.00 | 50 | 1013.4 |
| 20260507230052 | 59 | 0 | 0.0 | 3.5 | 0.00 | 0.00 | 0.00 | 48 | 1013.4 |
| 20260507225544 | 60 | 0 | 0.0 | 3.5 | 0.00 | 0.00 | 0.00 | 49 | 1013.3 |
| 20260507225045 | 60 | 0 | 0.0 | 3.5 | 0.00 | 0.00 | 0.00 | 47 | 1013.4 |
| 20260507224558 | 60 | 0 | 0.0 | 2.6 | 0.00 | 0.00 | 0.00 | 49 | 1013.3 |
| 20260507224044 | 60 | 0 | 0.0 | 0.0 | 0.00 | 0.00 | 0.00 | 47 | 1013.2 |
| 20260507223545 | 60 | 0 | 0.0 | 0.0 | 0.00 | 0.00 | 0.00 | 49 | 1013.3 |
| 20260507223049 | 60 | 0 | 0.0 | 0.0 | 0.00 | 0.00 | 0.00 | 48 | 1013.2 |
| 20260507222546 | 60 | 0 | 0.0 | 0.0 | 0.00 | 0.00 | 0.00 | 52 | 1013.1 |
| 20260507222043 | 60 | 0 | 0.0 | 0.0 | 0.00 | 0.00 | 0.00 | 53 | 1013.1 |
| 20260507221550 | 60 | 0 | 0.0 | 0.0 | 0.00 | 0.00 | 0.00 | 53 | 1013.1 |
| 20260507221045 | 60 | 0 | 0.0 | 0.0 | 0.00 | 0.00 | 0.00 | 50 | 1013.1 |
| 20260507220544 | 60 | 0 | 0.0 | 0.0 | 0.00 | 0.00 | 0.00 | 54 | 1013.1 |
| 20260507220049 | 61 | 0 | 0.0 | 2.6 | 0.00 | 0.00 | 0.00 | 52 | 1013.1 |
| 20260507215543 | 61 | 0 | 0.0 | 2.6 | 0.00 | 0.00 | 0.00 | 53 | 1013.0 |
| 20260507215045 | 60 | 0 | 0.0 | 2.6 | 0.00 | 0.00 | 0.00 | 52 | 1012.8 |
| 20260507214605 | 61 | 0 | 0.0 | 1.7 | 0.00 | 0.00 | 0.00 | 49 | 1012.8 |
| 20260507214045 | 61 | 0 | 0.0 | 1.7 | 0.00 | 0.00 | 0.00 | 51 | 1012.9 |
| 20260507213545 | 61 | 0 | 0.0 | 2.6 | 0.00 | 0.00 | 0.00 | 54 | 1012.8 |
| 20260507213049 | 61 | 0 | 0.0 | 2.6 | 0.00 | 0.00 | 0.00 | 52 | 1012.8 |
| 20260507212546 | 62 | 0 | 0.0 | 5.2 | 0.00 | 0.00 | 0.00 | 53 | 1012.7 |
| 20260507212045 | 62 | 0 | 0.0 | 5.2 | 0.00 | 0.00 | 0.00 | 51 | 1012.5 |
| 20260507211556 | 63 | 329 | 0.0 | 2.6 | 0.00 | 0.00 | 0.00 | 51 | 1012.5 |
| 20260507211044 | 63 | 0 | 0.0 | 1.7 | 0.00 | 0.00 | 0.00 | 54 | 1012.5 |
| 20260507210542 | 62 | 0 | 0.0 | 1.7 | 0.00 | 0.00 | 0.00 | 51 | 1012.5 |
| 20260507210059 | 62 | 0 | 0.0 | 0.9 | 0.00 | 0.00 | 0.00 | 54 | 1012.3 |
| 20260507205544 | 62 | 0 | 0.0 | 0.9 | 0.00 | 0.00 | 0.00 | 49 | 1012.4 |
| 20260507205045 | 63 | 0 | 0.0 | 0.9 | 0.00 | 0.00 | 0.00 | 54 | 1012.3 |
| 20260507204547 | 63 | 0 | 0.0 | 0.0 | 0.00 | 0.00 | 0.00 | 54 | 1012.3 |
| 20260507204048 | 63 | 0 | 0.0 | 0.0 | 0.00 | 0.00 | 0.00 | 48 | 1012.2 |
| 20260507203545 | 64 | 0 | 0.0 | 0.0 | 0.00 | 0.00 | 0.00 | 51 | 1012.3 |
| 20260507203104 | 64 | 0 | 0.0 | 0.0 | 0.00 | 0.00 | 0.00 | 48 | 1012.2 |
| 20260507202545 | 65 | 0 | 0.0 | 1.7 | 0.00 | 0.00 | 0.00 | 46 | 1012.1 |
| 20260507202045 | 65 | 0 | 0.0 | 1.7 | 0.00 | 0.00 | 0.00 | 47 | 1012.3 |
| 20260507201607 | 65 | 0 | 0.0 | 1.7 | 0.00 | 0.00 | 0.00 | 49 | 1012.2 |
| 20260507201045 | 64 | 0 | 0.0 | 0.0 | 0.00 | 0.00 | 0.00 | 54 | 1012.4 |
| 20260507200545 | 63 | 0 | 0.0 | 0.9 | 0.00 | 0.00 | 0.00 | 54 | 1012.5 |
| 20260507200106 | 63 | 0 | 0.0 | 4.3 | 0.00 | 0.00 | 0.00 | 51 | 1012.6 |
| 20260507195545 | 64 | 0 | 0.0 | 4.3 | 0.00 | 0.00 | 0.00 | 50 | 1012.6 |
| 20260507195045 | 65 | 0 | 0.0 | 0.0 | 0.00 | 0.00 | 0.00 | 49 | 1012.5 |
| 20260507194552 | 66 | 0 | 0.0 | 0.9 | 0.00 | 0.00 | 0.00 | 48 | 1012.6 |
| 20260507194042 | 66 | 0 | 0.0 | 0.9 | 0.00 | 0.00 | 0.00 | 53 | 1012.7 |
| 20260507193541 | 66 | 0 | 0.0 | 0.9 | 0.00 | 0.00 | 0.00 | 49 | 1012.7 |
| 20260507193057 | 66 | 0 | 0.0 | 0.0 | 0.00 | 0.00 | 0.00 | 48 | 1012.7 |
| 20260507192546 | 66 | 0 | 0.0 | 0.0 | 0.00 | 0.00 | 0.00 | 45 | 1012.8 |
| 20260507192045 | 66 | 0 | 0.0 | 0.9 | 0.00 | 0.00 | 0.00 | 59 | 1012.8 |
| 20260507191549 | 66 | 0 | 0.0 | 0.9 | 0.00 | 0.00 | 0.00 | 45 | 1012.9 |
| 20260507191044 | 65 | 0 | 0.0 | 0.0 | 0.00 | 0.00 | 0.00 | 54 | 1013.0 |
| 20260507190546 | 66 | 0 | 0.0 | 0.0 | 0.00 | 0.00 | 0.00 | 51 | 1013.0 |
| 20260507190057 | 66 | 0 | 0.0 | 0.0 | 0.00 | 0.00 | 0.00 | 50 | 1013.1 |
| 20260507185546 | 66 | 0 | 0.0 | 0.0 | 0.00 | 0.01 | 0.00 | 57 | 1013.1 |
| 20260507185042 | 65 | 0 | 0.0 | 0.0 | 0.00 | 0.01 | 0.00 | 44 | 1013.1 |
| 20260507184556 | 65 | 0 | 0.0 | 0.0 | 0.00 | 0.01 | 0.00 | 52 | 1013.1 |
| 20260507184042 | 63 | 0 | 0.0 | 0.0 | 0.00 | 0.01 | 0.00 | 57 | 1013.2 |
| 20260507183543 | 63 | 0 | 0.0 | 0.0 | 0.00 | 0.01 | 0.00 | 57 | 1013.2 |
| 20260507183051 | 61 | 0 | 0.0 | 0.0 | 0.00 | 0.01 | 0.00 | 55 | 1013.5 |
| 20260507182545 | 64 | 0 | 0.0 | 0.0 | 0.00 | 0.01 | 0.00 | 53 | 1013.4 |
| 20260507182046 | 64 | 0 | 0.0 | 0.0 | 0.00 | 0.01 | 0.00 | 61 | 1013.3 |
| 20260507181549 | 63 | 0 | 0.0 | 0.0 | 0.00 | 0.01 | 0.00 | 57 | 1013.4 |
| 20260507181045 | 64 | 0 | 0.0 | 0.0 | 0.00 | 0.01 | 0.00 | 50 | 1013.2 |
| 20260507180549 | 65 | 0 | 0.0 | 0.0 | 0.00 | 0.01 | 0.00 | 50 | 1013.3 |
| 20260507180051 | 64 | 0 | 0.0 | 0.0 | 0.00 | 0.01 | 0.00 | 54 | 1013.4 |
| 20260507175550 | 65 | 0 | 0.0 | 0.0 | 0.00 | 0.01 | 0.00 | 52 | 1013.4 |
| 20260507175046 | 62 | 0 | 0.0 | 0.0 | 0.00 | 0.01 | 0.00 | 55 | 1013.5 |
| 20260507174551 | 61 | 0 | 0.0 | 0.0 | 0.00 | 0.01 | 0.00 | 56 | 1013.5 |
| 20260507174042 | 64 | 0 | 0.0 | 0.0 | 0.00 | 0.01 | 0.00 | 57 | 1013.6 |
| 20260507173545 | 64 | 0 | 0.0 | 0.0 | 0.00 | 0.01 | 0.00 | 50 | 1013.6 |
| 20260507173050 | 64 | 0 | 0.0 | 0.0 | 0.00 | 0.01 | 0.00 | 56 | 1013.6 |
| 20260507172547 | 64 | 0 | 0.0 | 0.0 | 0.00 | 0.01 | 0.00 | 54 | 1013.6 |
| 20260507172043 | 65 | 0 | 0.0 | 0.0 | 0.00 | 0.01 | 0.00 | 53 | 1013.6 |
| 20260507171549 | 64 | 0 | 0.0 | 0.9 | 0.00 | 0.01 | 0.00 | 61 | 1013.9 |
| 20260507171045 | 62 | 0 | 0.0 | 0.9 | 0.00 | 0.01 | 0.00 | 62 | 1014.0 |
| 20260507170542 | 63 | 0 | 0.0 | 0.9 | 0.00 | 0.01 | 0.00 | 49 | 1014.0 |
| 20260507170059 | 62 | 0 | 0.0 | 0.0 | 0.00 | 0.01 | 0.00 | 61 | 1014.0 |
| 20260507165545 | 60 | 0 | 0.0 | 0.0 | 0.00 | 0.02 | 0.00 | 58 | 1014.1 |
| 20260507165043 | 61 | 0 | 0.0 | 0.0 | 0.00 | 0.02 | 0.00 | 55 | 1014.1 |
| 20260507164603 | 60 | 0 | 0.0 | 0.0 | 0.00 | 0.02 | 0.00 | 58 | 1014.1 |
| 20260507164045 | 58 | 0 | 0.0 | 0.0 | 0.00 | 0.02 | 0.00 | 61 | 1014.1 |
| 20260507163543 | 59 | 0 | 0.0 | 0.0 | 0.00 | 0.02 | 0.00 | 60 | 1014.2 |
| 20260507163052 | 60 | 0 | 0.0 | 0.0 | 0.00 | 0.02 | 0.00 | 56 | 1014.2 |
| 20260507162543 | 59 | 0 | 0.0 | 0.0 | 0.00 | 0.02 | 0.00 | 65 | 1014.2 |
| 20260507162042 | 58 | 0 | 0.0 | 0.0 | 0.00 | 0.02 | 0.00 | 58 | 1014.3 |
| 20260507161551 | 61 | 0 | 0.0 | 0.0 | 0.00 | 0.02 | 0.00 | 58 | 1014.3 |
| 20260507161045 | 61 | 0 | 0.0 | 0.0 | 0.00 | 0.02 | 0.00 | 60 | 1014.4 |
| 20260507160545 | 60 | 0 | 0.0 | 0.0 | 0.00 | 0.02 | 0.00 | 62 | 1014.3 |
| 20260507160054 | 59 | 0 | 0.0 | 0.0 | 0.00 | 0.02 | 0.00 | 65 | 1014.4 |
| 20260507155542 | 58 | 0 | 0.0 | 0.0 | 0.00 | 0.02 | 0.00 | 62 | 1014.5 |
| 20260507155043 | 58 | 0 | 0.0 | 0.0 | 0.00 | 0.02 | 0.00 | 67 | 1014.5 |
| 20260507154556 | 59 | 0 | 0.0 | 0.0 | 0.00 | 0.02 | 0.00 | 56 | 1014.5 |
| 20260507154044 | 58 | 0 | 0.0 | 0.0 | 0.00 | 0.02 | 0.00 | 59 | 1014.4 |
| 20260507153545 | 57 | 0 | 0.0 | 0.0 | 0.00 | 0.02 | 0.00 | 62 | 1014.5 |
| 20260507153053 | 58 | 0 | 0.0 | 0.0 | 0.00 | 0.02 | 0.00 | 59 | 1014.5 |
| 20260507152545 | 59 | 0 | 0.0 | 0.0 | 0.00 | 0.02 | 0.00 | 61 | 1014.4 |
| 20260507152044 | 59 | 0 | 0.0 | 0.0 | 0.00 | 0.02 | 0.00 | 64 | 1014.4 |
| 20260507151550 | 57 | 0 | 0.0 | 0.0 | 0.00 | 0.02 | 0.00 | 60 | 1014.4 |
| 20260507151043 | 57 | 0 | 0.0 | 0.0 | 0.00 | 0.02 | 0.00 | 62 | 1014.4 |
| 20260507150543 | 57 | 0 | 0.0 | 0.0 | 0.00 | 0.02 | 0.00 | 59 | 1014.5 |
| 20260507150054 | 58 | 0 | 0.0 | 0.0 | 0.00 | 0.02 | 0.00 | 57 | 1014.5 |
| 20260507145543 | 58 | 0 | 0.0 | 4.3 | 0.00 | 0.04 | 0.00 | 64 | 1014.6 |
| 20260507145044 | 58 | 0 | 0.0 | 4.3 | 0.00 | 0.04 | 0.00 | 60 | 1014.6 |
| 20260507144555 | 57 | 0 | 0.0 | 1.7 | 0.00 | 0.04 | 0.00 | 62 | 1014.6 |
| 20260507144044 | 57 | 0 | 0.0 | 1.7 | 0.00 | 0.04 | 0.00 | 58 | 1014.6 |
| 20260507143545 | 58 | 0 | 0.0 | 1.7 | 0.00 | 0.04 | 0.00 | 64 | 1014.6 |
| 20260507143101 | 58 | 0 | 0.0 | 1.7 | 0.00 | 0.04 | 0.00 | 66 | 1014.6 |
| 20260507142545 | 57 | 0 | 0.0 | 0.0 | 0.00 | 0.04 | 0.00 | 66 | 1014.6 |
| 20260507142045 | 57 | 0 | 0.0 | 0.0 | 0.00 | 0.04 | 0.00 | 72 | 1014.6 |
| 20260507141555 | 56 | 0 | 0.0 | 0.0 | 0.00 | 0.04 | 0.00 | 64 | 1014.6 |
| 20260507141043 | 56 | 0 | 0.0 | 0.0 | 0.00 | 0.04 | 0.00 | 70 | 1014.7 |
| 20260507140545 | 55 | 0 | 0.0 | 0.0 | 0.00 | 0.04 | 0.00 | 69 | 1014.8 |
| 20260507140052 | 55 | 0 | 0.0 | 0.0 | 0.00 | 0.04 | 0.00 | 64 | 1014.9 |
| 20260507135545 | 55 | 0 | 0.0 | 0.9 | 0.00 | 0.06 | 0.00 | 69 | 1015.0 |
| 20260507135043 | 55 | 0 | 0.0 | 0.9 | 0.00 | 0.06 | 0.00 | 70 | 1015.0 |
| 20260507134554 | 54 | 0 | 0.0 | 0.9 | 0.00 | 0.06 | 0.00 | 69 | 1015.1 |
| 20260507134043 | 53 | 0 | 0.0 | 0.0 | 0.00 | 0.06 | 0.00 | 74 | 1015.1 |
| 20260507133544 | 53 | 0 | 0.0 | 0.0 | 0.00 | 0.06 | 0.00 | 75 | 1015.3 |
| 20260507133132 | 53 | 0 | 0.0 | 0.0 | 0.00 | 0.06 | 0.00 | 76 | 1015.2 |
| 20260507132543 | 53 | 0 | 0.0 | 0.0 | 0.00 | 0.06 | 0.00 | 76 | 1015.2 |
| 20260507132043 | 53 | 0 | 0.0 | 0.0 | 0.00 | 0.06 | 0.00 | 79 | 1015.4 |